Kulusuk, Greenland

5:21 PM -03 on December 14, 2017 (GMT -0300)
Kulusuk

Weather History for BGKK - November, 2014

Change the Weather History Date:

Wednesday, November 19, 2014

  Actual Average Record
Temperature  
Mean Temperature 28 °F -  
Max Temperature 33 °F 25 °F 41 °F (1999)
Min Temperature 23 °F 21 °F 12 °F (2004)
Degree Days  
Heating Degree Days 37    
Moisture  
Dew Point 25 °F    
Average Humidity 78    
Maximum Humidity 100    
Minimum Humidity 51    
Precipitation  
Precipitation 0.00 in - - ()
Sea Level Pressure  
Sea Level Pressure 29.57 in    
Wind  
Wind Speed 7 mph ()    
Max Wind Speed 33 mph    
Max Gust Speed -    
Visibility 5.3 miles    
Events Rain , Snow    
Averages and records for this station are not official NWS values.
T = Trace of Precipitation, MM = Missing Value Source: Averaged Metar Reports

Daily Weather History Graph

Daily Weather History Graph

Search for Another Location

Airport or City:

Trip Planner

Search our weather history database for the weather conditions in past years. The results will help you decide how hot, cold, wet, or windy it might be!

Date:

Astronomy

Nov. 19, 2014 Rise Set
Actual Time 8:25 AM -03 2:01 PM -03
Civil Twilight 7:16 AM -03 3:10 PM -03
Nautical Twilight 6:10 AM -03 4:16 PM -03
Astronomical Twilight 5:10 AM -03 5:16 PM -03
Moon 3:47 AM -03 (11/19) 1:41 PM -03 (11/19)
Length of Visible Light 7h 53m
Length of Day
5h 35m
Waning Crescent, 9% of the Moon is Illuminated
Nov 19
Waning Crescent
Nov 22
New
Nov 29
First Quarter
Dec 6
Full
Dec 14
Last Quarter

Hourly Weather History & Observations

Time (-03) Temp. Windchill Dew Point Humidity Pressure Visibility Wind Dir Wind Speed Gust Speed Precip Events Conditions
12:00 AM 32 °F - 31 °F 93% 29.51 in 2 mi WSW 3.5 mph - - Snow Light Snow
12:50 AM 32.0 °F - 30.2 °F 93% 29.44 in 2.2 mi WSW 2.3 mph - N/A Snow Light Snow
1:50 AM 32.0 °F 28.7 °F 30.2 °F 93% 29.44 in 5.6 mi WSW 3.5 mph - N/A Snow Light Snow
2:50 AM 32.0 °F 26.4 °F 30.2 °F 93% 29.42 in 5.6 mi SW 5.8 mph - N/A Snow Light Snow
3:00 AM 32 °F - 30 °F 91% 29.44 in 4 mi SW 5.8 mph - - Snow Light Snow
3:50 AM 32.0 °F 26.4 °F 30.2 °F 93% 29.42 in - WSW 5.8 mph - N/A Snow Light Snow
4:50 AM 32.0 °F 28.7 °F 32.0 °F 100% 29.42 in 6.2 mi SW 3.5 mph - N/A Snow Light Snow
5:50 AM 30.2 °F 19.8 °F 30.2 °F 100% 29.44 in 6.2 mi SW 13.8 mph - N/A   Mostly Cloudy
6:00 AM 31 °F - 30 °F 93% 29.46 in 22 mi SW 10.4 mph - -   Clear
6:50 AM 30.2 °F 20.2 °F 24.8 °F 80% 29.47 in 6.2 mi South 12.7 mph - N/A   Mostly Cloudy
8:50 AM 30.2 °F 25.4 °F 21.2 °F 69% 29.53 in 6.2 mi South 4.6 mph - N/A   Partly Cloudy
9:00 AM 28 °F - 17 °F 52% 29.56 in 0 mi South 5.8 mph - -   Mist
9:50 AM 28.4 °F 20.4 °F 21.2 °F 74% 29.56 in 6.2 mi SSW 8.1 mph - N/A   Partly Cloudy
10:50 AM 28.4 °F 19.1 °F 17.6 °F 64% 29.59 in 6.2 mi South 10.4 mph - N/A   Partly Cloudy
11:50 AM 28.4 °F 22.2 °F 19.4 °F 69% 29.62 in 6.2 mi South 5.8 mph - N/A   Scattered Clouds
12:00 PM 28 °F - 18 °F 54% 29.65 in 22 mi South 6.9 mph - -  
12:50 PM 28.4 °F 21.2 °F 15.8 °F 59% 29.65 in 6.2 mi SSW 6.9 mph - N/A   Mostly Cloudy
1:50 PM 23.0 °F 18.4 °F 12.2 °F 63% 29.65 in 6.2 mi SW 3.5 mph - N/A   Mostly Cloudy
2:50 PM 28.4 °F - 19.4 °F 69% 29.65 in 6.2 mi Variable 1.2 mph - N/A   Mostly Cloudy
3:00 PM 28 °F - 19 °F 59% 29.68 in 22 mi South 2.3 mph - -   Mostly Cloudy
3:50 PM 28.4 °F - 21.2 °F 74% 29.68 in 6.2 mi Calm Calm - N/A   Mostly Cloudy
4:50 PM 30.2 °F - 21.2 °F 69% 29.68 in 6.2 mi ESE 2.3 mph - N/A   Mostly Cloudy
5:50 PM 32.0 °F 23.6 °F 21.2 °F 64% 29.65 in 6.2 mi East 10.4 mph - N/A   Mostly Cloudy
6:00 PM 33 °F - 22 °F 51% 29.68 in 22 mi East 12.7 mph - -   Scattered Clouds
6:50 PM 32.0 °F 21.6 °F 24.8 °F 75% 29.65 in 6.2 mi East 15.0 mph - N/A   Mostly Cloudy
7:50 PM 33.8 °F 24.8 °F 30.2 °F 87% 29.68 in 6.2 mi East 12.7 mph - N/A Rain Light Rain
8:50 PM 32.0 °F 20.8 °F 30.2 °F 93% 29.65 in 6.2 mi ENE 17.3 mph - N/A Snow Light Snow
9:00 PM 33 °F - 29 °F 80% 29.67 in 7 mi ENE 17.3 mph - - Snow Light Snow
9:50 PM 32.0 °F 20.1 °F 30.2 °F 93% 29.65 in 5.0 mi ENE 19.6 mph - N/A Snow Light Snow
10:50 PM 32.0 °F 18.6 °F 30.2 °F 93% 29.56 in 0.7 mi ENE 25.3 mph - N/A Snow Light Snow
11:50 PM 33.8 °F 19.4 °F 30.2 °F 87% 29.53 in 6.2 mi ENE 33.4 mph - N/A Snow Light Snow